STARLINK-35069, 66268

Orbit data source: Space-Track

STARLINK-35069, 66268 is a payload satellite owned by SpaceX/Seattle (US) in LEO that was launched on Fri, 31 Oct 2025 UTC via an FALCON 9 launch vehicle from the Air Force Western Test Range (AFWTR). Payload-class satellites include a variety of spacecraft equipped with specific instruments for various scientific and technological missions. These include communications satellites like Starlink; space stations such as the ISS; scientific satellites like the Hubble; Earth observation satellites from companies like Planet Labs, Umbra, and HawkEye 360; GPS; miniature CubeSats for education and research; and military/defense satellites.

Loading next visibility...
Identifier
66268, 2025-247D
Orbit
LEO
Country
Flag of USUS
Related business
Manufacturer
SpaceX/Seattle
Mission
Operational Commercial Communications
Bus & Motor
STARLINK V2MO, Unknown motor
Mass
575 kg wet, ~530 kg dry
Launch date (UTC)
2025-10-31 (8 months ago)
Launch vehicle
FALCON 9
Launch site
Air Force Western Test Range (AFWTR)
Object type
Payload
Rocket body
Debris
Shape & HBR
Box + 2 Pan, 17.7 m
Radar Cross Section
36.964 m², Large (>1 m²)

Expand to show TLE details & history
Last TLE update: 22 hours ago

TLE from 22 hours ago
0 STARLINK-35069
1 66268U 25247D   26170.93787685  .00009865  00000-0  30268-3 0  9997
2 66268  53.1594  76.1436 0001034  86.6673 273.4448 15.34404456 36690
Epoch: 2026-06-19T22:30Z
TLE epoch observation values (Epoch: 2026-06-19T22:30:32.559Z)
Latitude
-0.00003°
Longitude
-169.65176°
Altitude
463.549 km
Speed
7.636 km/s
True Right ascension
05h 04m 34s
True Declination
0° 00' 00"
Sunlit
Object was in daylight at epoch
Visualization orbit readout
Latitude
Unknown
Longitude
Unknown
Altitude
Unknown
Speed
Unknown
Apparent Right ascension
Unknown
Apparent Declination
Unknown
Sunlit
N/A
Visualization observer readout
Local Sidereal Time
07:18:30
Azimuth
Unknown
Elevation
Unknown
Doppler factor
Unknown
Orbital elements
Apogee altitude
463.654 km
Perigee altitude
462.24 km
Semi-major axis
6,841.084 km
Eccentricity
0.0001
Inclination
53.1594°
RAAN
76.1436°
Arg. of periapsis
86.6673°
True anomaly
273.43297°
Mean anomaly
273.4448°
Eccentric anomaly
273.43889°
Mean motion
3.8358 °/min
Orbital period
93.85 mins
BSTAR
0.00030268
Loading maneuver chart data...
Computing Atmospheric mass density...
Loading historical data...
Loading historical data...
Loading historical data...
Loading historical data...
Loading historical data...
Loading historical data...
Loading historical data...

Documentation

Showing up to 5 results
|